Regional Weather Roundup
Issued by NWS

Home | Current Version | Previous Version | Graphics & Text | Print | Product List | Glossary On
Versions: 1 2 3 4 5 6 7 8 9 10 11 12 13 14 15 16 17 18 19 20 21 22 23 24 25 26 27 28 29 30 31 32 33 34 35 36 37 38 39 40 41 42 43 44 45 46 47 48 49 50
000
ASUS43 KOAX 292010
RWRNE

WEATHER ROUNDUP FOR NEBRASKA
NATIONAL WEATHER SERVICE OMAHA NE
300 PM CDT WED OCT 29 2014

NOTES: SATELLITE DATA IS BEING USED TO AUGMENT CLOUD COVER ABOVE
       12000 FEET.
       "FAIR" INDICATES FEW OR NO CLOUDS BELOW 12,000 FEET WITH NO
       SIGNIFICANT WEATHER AND/OR OBSTRUCTIONS TO VISIBILITY.

  * THESE STATIONS DO NOT REPORT WEATHER SUCH AS RAIN...SNOW OR FOG.

NEZ001>004-019>022-054>056-292100-
NEBRASKA PANHANDLE

CITY           SKY/WX    TMP DP  RH WIND       PRES   REMARKS
SCOTTSBLUFF    SUNNY     70  21  15 NW16G25   30.00F
ALLIANCE       SUNNY     68  20  16 W21       29.98F
CHADRON        MOSUNNY   66  27  23 VRB6      29.96F
KIMBALL        SUNNY     70  21  16 W26       30.02F
SIDNEY         SUNNY     68  23  18 SW21G26   30.04F
$$

NEZ057>060-069>072-079>082-292100-
SOUTHWEST NEBRASKA

CITY           SKY/WX    TMP DP  RH WIND       PRES   REMARKS
NORTH PLATTE   SUNNY     69  19  15 W10       30.01F
IMPERIAL       SUNNY     70  21  15 SW9       30.03F
LEXINGTON      SUNNY     64  30  28 S10       30.05F
MCCOOK         SUNNY     68  29  23 VRB7      30.05F
OGALLALA       SUNNY     71  25  18 W10       30.01F
$$

NEZ005>010-023>029-035>040-094-292100-
NORTH CENTRAL NEBRASKA

CITY           SKY/WX    TMP DP  RH WIND       PRES   REMARKS
VALENTINE      SUNNY     65  21  18 SW12      29.97F
AINSWORTH      SUNNY     63  24  22 S12       29.98F
BROKEN BOW     SUNNY     64  29  26 S16G24    30.03F
O`NEILL        SUNNY     59  29  31 S14G21    30.04F
ORD            SUNNY     59  27  29 S16G22    30.05F
THEDFORD       SUNNY     67  22  18 S12G20    29.99F
$$

NEZ041-046>049-061>064-073>077-083>087-292100-
SOUTH CENTRAL NEBRASKA

CITY           SKY/WX    TMP DP  RH WIND       PRES   REMARKS
GRAND ISLAND   SUNNY     60  30  32 S14       30.09F
AURORA         SUNNY     59  26  28 S12G17    30.09F
HASTINGS       SUNNY     60  28  29 S8        30.08F
HEBRON         SUNNY     61  26  26 S10G16    30.12F
HOLDREGE       SUNNY     62  29  29 S14G20    30.06F
KEARNEY *      SUNNY     63  28  27 S17       30.07F
YORK           SUNNY     57  30  35 S12       30.11F
$$

NEZ011>018-030>034-042>045-292100-
NORTHEAST NEBRASKA

CITY           SKY/WX    TMP DP  RH WIND       PRES   REMARKS
NORFOLK        SUNNY     56  30  37 S12       30.09F
ALBION         SUNNY     56  29  35 S13G18    30.08F
BLAIR          SUNNY     55  31  39 SE3       30.14F
COLUMBUS *     SUNNY     55  28  35 S8        30.12F
FREMONT        SUNNY     55  31  39 S6        30.14F
TEKAMAH        SUNNY     55  30  38 S7        30.14F
WAYNE          SUNNY     55  29  37 S8        30.11F
$$

NEZ050>053-065>068-078-088>093-292100-
SOUTHEAST NEBRASKA

CITY           SKY/WX    TMP DP  RH WIND       PRES   REMARKS
LINCOLN        SUNNY     57  32  38 SE5       30.15F
OMAHA EPPLEY   SUNNY     54  30  40 CALM      30.16F
BEATRICE       SUNNY     58  32  38 SE9       30.14F
FALLS CITY     SUNNY     57  32  38 CALM      30.16F
NEBRASKA CITY  SUNNY     55  27  33 CALM      30.16F
PLATTSMOUTH    SUNNY     55  27  33 CALM      30.15F
$$

NEZ044-045-051>053-067-292100-
OMAHA AREA

CITY           SKY/WX    TMP DP  RH WIND       PRES   REMARKS
OMAHA EPPLEY   SUNNY     54  30  40 CALM      30.16F
BLAIR          SUNNY     55  31  39 SE3       30.14F
FREMONT        SUNNY     55  31  39 S6        30.14F
MILLARD        SUNNY     54  31  41 CALM      30.15F
OFFUTT AFB     SUNNY     55  32  42 VRB2      30.15F
PLATTSMOUTH    SUNNY     55  27  33 CALM      30.15F
WAHOO          FAIR      56  28  33 S5        30.14F
$$



USA.gov is the U.S. government's official web portal to all federal, state and local government web resources and services.